Lexington Weather

Lexington, Massachusetts, USA

44°F
5/12/2021 4:20am 
  • Lexington Conditions: Clear
  • Temperature: 44.4°F / 6.9°CColder 0.7°F than last hour.
  • Dew Point: 33.1°FIncreased 1.5°Fsince last hour.
  • Relative Humidity: 64%Increased 5.0% since last hour.
  • Wind: Wind from WNW WNW 2 mph, 10-min avg: 1 mph, gust: 4 mph
  • Barometer: 29.92 in Steady
  • Visibility: 10 miles
  • Rain Today: 0.00 in
  •   

Regional Weather Roundup
for Boston / Norton, MA

        
000
ASUS41 KBOX 072105
RWRBOX

REGIONAL WEATHER ROUNDUP
NATIONAL WEATHER SERVICE BOSTON/NORTON MA
500 PM EDT FRI MAY 07 2021

NOTE:  "FAIR" INDICATES FEW OR NO CLOUDS BELOW 12,000 FEET WITH NO 
SIGNIFICANT WEATHER AND/OR OBSTRUCTIONS TO VISIBILITY.

MAZALL-072200-
EASTERN MASSACHUSETTS
  
CITY           SKY/WX    TMP DP  RH WIND       PRES   REMARKS
BOSTON         PTSUNNY   51  40  65 E13       29.96F                  
BEVERLY        MOSUNNY   54  24  31 SE14      29.96F                  
LAWRENCE       SUNNY     58  29  33 SE10      29.96S                  
BEDFORD        PTSUNNY   56  29  35 E10       29.93S                  
BLUE HILL        N/A     53  30  41 E14       29.92S                  
NORWOOD        CLOUDY    57  32  38 E13       29.93S                  
MARSHFIELD     SUNNY     54  43  66 E12       29.95S                  
PLYMOUTH       MOSUNNY   56  31  38 E14G22    29.93S                  
TAUNTON        MOSUNNY   59  37  44 E6        29.91F                  
NEW BEDFORD    MOSUNNY   58  38  47 SE14      29.92S                  
$$

MAZALL-072200-
CAPE COD AND THE ISLANDS
  
CITY           SKY/WX    TMP DP  RH WIND       PRES   REMARKS
FALMOUTH       SUNNY     57  28  33 SE15      29.93S                  
HYANNIS        SUNNY     58  31  35 E12G18    29.91F                  
CHATHAM        SUNNY     53  35  50 E12       29.96S                  
PROVINCETOWN   MOSUNNY   53  38  56 E14       29.96F                  
NANTUCKET      SUNNY     54  39  57 E14       29.93S                  
MARTHAS VNYRD  SUNNY     56  39  53 E16       29.93S                  
$$
 
MAZALL-072200-
CENTRAL AND WESTERN MASSACHUSETTS
  
CITY           SKY/WX    TMP DP  RH WIND       PRES   REMARKS
WORCESTER      CLOUDY    54  37  52 E6        29.91S                  
FITCHBURG      CLOUDY    57  37  47 SE13      29.92S                  
ORANGE         CLOUDY    59  38  45 SE9       29.90S                  
SPRINGFIELD    CLOUDY    60  36  40 E9        29.87S                  
WESTFIELD      CLOUDY    60  35  39 S7        29.87S                  
NORTH ADAMS    CLOUDY    61  32  33 E7        29.85S                  
PITTSFIELD     CLOUDY    57  31  37 E9        29.84S                  
$$
 
RIZALL-072200-
RHODE ISLAND
  
CITY           SKY/WX    TMP DP  RH WIND       PRES   REMARKS
PROVIDENCE     PTSUNNY   59  41  51 S12       29.92S                  
NEWPORT        MOSUNNY   55  40  56 SE10      29.92S                  
BLOCK ISLAND   MOSUNNY   51  43  74 E13         N/A                   
SMITHFIELD       N/A     57  38  48 SE6       29.92R                  
WESTERLY       MOSUNNY   53  40  61 SE16      29.93R                  
$$
 
CTZALL-072200-
CONNECTICUT
  
CITY           SKY/WX    TMP DP  RH WIND       PRES   REMARKS
BRADLEY INTL   CLOUDY    60  35  39 S8        29.87S                  
HARTFORD       CLOUDY    60  36  40 S14G24    29.88R                  
BRIDGEPORT     PTSUNNY   56  47  71 E15       29.88S                  
DANBURY        PTSUNNY   61  38  42 SE13      29.87R                  
GROTON         MOSUNNY   54  43  66 SE12      29.92S                  
NEW HAVEN      MOSUNNY   57  46  66 E15G22    29.89S                  
CHESTER        FAIR      57  37  47 SE13      29.90S                  
MERIDEN        MOSUNNY   60  38  43 S10G21    29.88S                  
WILLIMANTIC    CLOUDY    60  35  39 S12G20    29.89R                  
OXFORD         PTSUNNY   57  43  59 SE15      29.88S                  
$$

MEZ002-015-021-024-NHZ003-005-008-011-012-014-VTZ005-008-072200-
NORTHERN NEW ENGLAND
  
CITY           SKY/WX    TMP DP  RH WIND       PRES   REMARKS
PORTLAND ME    MOSUNNY   53  31  42 S13       29.95F                  
BANGOR ME      MOSUNNY   61  27  27 NW10G17   29.94S                  
CONCORD NH     MOSUNNY   60  31  33 E10       29.91F                  
MANCHESTER NH  PTSUNNY   60  28  29 E15G22    29.91S                  
NASHUA NH      MOSUNNY   60  33  36 SE10G18   29.93S                  
PORTSMOUTH NH  PTSUNNY   54  21  27 SE13      29.96F                  
JAFFREY NH     PTSUNNY   57  36  45 SE8       29.90S                  
KEENE NH       PTSUNNY   59  37  44 SE9       29.89S                  
BURLINGTON VT  PTSUNNY   62  27  26 W12       29.87F                  
MT. WASHINGTON PTSUNNY   32  25  74 SE8         N/A  WCI  25          
$$

NYZ052-076-072200-
EASTERN NEW YORK
  
CITY           SKY/WX    TMP DP  RH WIND       PRES   REMARKS
ALBANY         PTSUNNY   60  31  33 SE6       29.83F                  
NEW YORK CITY  PTSUNNY   61  36  39 SE12      29.85S                  
$$
 
ANZALL-072200-
MARINE OBSERVATIONS
  
STATION/POSITION TIME  TEMP    WIND        PRES    VSBY  WAVE
                       AIR SEA DIR/SP/G                  HT/PER
                 (UTC) (F)     (DEG/KT/KT) (MB)    (MI)  (FT/S)
BOSTON BUOY      2050   47 49   90/ 12/ 16 1014.4F         2/ 3
BUZZARDS BAY     2000          120/ 16/ 17 1014.1F
NANTUCKET SOUND  2050      52                N/A           2/ 3
MASS BAY-STELLWA 2004   48     100/ 10/ 12 1013.9F  1 7/8  2/ 8
ISLE OF SHOALS   2000   48     130/ 13/ 14 1014.4F
S OF BLOCK IS    2026      50                N/A           3/ 3
$$

......................KEY.........................
  SKY/WX - SKY CONDITION/PRESENT WEATHER
  TMP    - TEMPERATURE IN FAHRENHEIT
  DWPT   - DEWPOINT IN FAHRENHEIT
  RH     - RELATIVE HUMIDITY IN PERCENT
  WIND   - DIRECTION AND SPEED IN MPH
  PRES   - MEAN SEA LEVEL PRESSURE IN INCHES OF HG
  WCI    - WIND CHILL INDEX
  VSB    - VISIBILITY IN MILES
  HX     - HEAT INDEX
  TC     - TEMPERATURE IN CELSIUS
  VRB    - VARIABLE WIND DIRECTION
  N/A    - NOT AVAILABLE
  
      

Other recent Regional Weather Roundups

Wed May 12, 3:04am

Wed May 12, 2:04am

Wed May 12, 1:04am

Wed May 12, 12:05am

Tue May 11, 11:05pm

Tue May 11, 10:04pm

Tue May 11, 9:05pm

Tue May 11, 8:05pm

Tue May 11, 7:04pm

Tue May 11, 6:04pm

Tue May 11, 5:04pm

Tue May 11, 4:05pm

Tue May 11, 3:04pm

Tue May 11, 2:05pm

Tue May 11, 1:04pm

Tue May 11, 12:05pm

Tue May 11, 11:05am

Tue May 11, 10:04am

Tue May 11, 9:04am

Tue May 11, 8:04am

Tue May 11, 7:05am

Tue May 11, 6:04am

Tue May 11, 5:04am

Tue May 11, 4:04am

Tue May 11, 3:04am

Tue May 11, 2:04am

Tue May 11, 1:04am

Tue May 11, 12:04am

Mon May 10, 11:04pm

Mon May 10, 10:04pm

Mon May 10, 9:05pm

Mon May 10, 8:04pm

Mon May 10, 7:05pm

Mon May 10, 6:04pm

Mon May 10, 5:04pm

Mon May 10, 4:04pm

Mon May 10, 3:04pm

Mon May 10, 2:04pm

Mon May 10, 1:04pm

Mon May 10, 12:04pm

Mon May 10, 11:05am

Mon May 10, 10:04am

Mon May 10, 9:04am

Mon May 10, 8:04am

Mon May 10, 7:04am

Mon May 10, 6:04am

Mon May 10, 5:05am

Mon May 10, 4:04am

Mon May 10, 3:04am

Mon May 10, 2:04am

Mon May 10, 1:04am

Mon May 10, 12:04am

Sun May 9, 11:04pm

Sun May 9, 10:04pm

Sun May 9, 9:04pm

Sun May 9, 8:04pm

Sun May 9, 7:05pm

Sun May 9, 6:04pm

Sun May 9, 5:04pm

Sun May 9, 4:04pm

Sun May 9, 3:04pm

Sun May 9, 2:04pm

Sun May 9, 1:05pm

Sun May 9, 12:04pm

Sun May 9, 11:05am

Sun May 9, 10:04am

Sun May 9, 9:04am

Sun May 9, 8:04am

Sun May 9, 7:04am

Sun May 9, 6:04am

Sun May 9, 5:04am

Sun May 9, 4:04am

Sun May 9, 3:04am

Sun May 9, 2:04am

Sun May 9, 1:05am

Sun May 9, 12:04am

Sat May 8, 11:05pm

Sat May 8, 10:04pm

Sat May 8, 9:05pm

Sat May 8, 8:04pm

Sat May 8, 7:04pm

Sat May 8, 6:04pm

Sat May 8, 5:05pm

Sat May 8, 4:04pm

Sat May 8, 3:05pm

Sat May 8, 2:05pm

Sat May 8, 1:05pm

Sat May 8, 12:04pm

Sat May 8, 11:05am

Sat May 8, 10:04am

Sat May 8, 9:04am

Sat May 8, 8:04am

Sat May 8, 7:04am

Sat May 8, 6:04am

Sat May 8, 5:04am

Sat May 8, 4:04am

Sat May 8, 3:04am

Sat May 8, 2:04am

Sat May 8, 1:05am

Sat May 8, 12:04am

Fri May 7, 11:04pm

Fri May 7, 10:05pm

Fri May 7, 9:04pm

Fri May 7, 8:04pm

Fri May 7, 7:05pm

Fri May 7, 6:04pm

Fri May 7, 4:04pm

Fri May 7, 3:04pm

Fri May 7, 2:05pm

Fri May 7, 1:04pm

Fri May 7, 12:04pm

Fri May 7, 11:05am

Fri May 7, 10:04am

Fri May 7, 9:04am

Fri May 7, 8:05am

Fri May 7, 7:04am

Fri May 7, 6:04am

Fri May 7, 5:04am

Fri May 7, 4:04am

Fri May 7, 3:04am

Fri May 7, 2:05am

Fri May 7, 1:04am

Fri May 7, 12:05am

Thu May 6, 11:04pm

Thu May 6, 10:04pm

Thu May 6, 9:05pm

Thu May 6, 8:04pm

Thu May 6, 7:04pm

Thu May 6, 6:04pm

Thu May 6, 5:05pm

Thu May 6, 4:04pm

Thu May 6, 3:04pm

Thu May 6, 2:05pm

Thu May 6, 1:04pm

Thu May 6, 12:04pm

Thu May 6, 11:04am

Thu May 6, 10:04am

Thu May 6, 9:04am

Thu May 6, 8:04am

Thu May 6, 7:04am

Thu May 6, 6:04am

Thu May 6, 5:04am

Thu May 6, 4:04am

Thu May 6, 3:04am

Thu May 6, 2:05am

Thu May 6, 1:04am

Thu May 6, 12:05am

Wed May 5, 11:04pm

Wed May 5, 10:04pm

Wed May 5, 9:05pm

Wed May 5, 8:04pm

Wed May 5, 7:05pm

Wed May 5, 6:04pm

Wed May 5, 5:04pm

Wed May 5, 4:04pm

Wed May 5, 3:04pm

Wed May 5, 2:05pm

Wed May 5, 1:05pm

Wed May 5, 12:04pm

Wed May 5, 11:05am

Wed May 5, 10:04am

Wed May 5, 9:04am

Wed May 5, 8:04am

Wed May 5, 7:04am

Wed May 5, 6:05am

Wed May 5, 5:04am

Wed May 5, 4:04am

Meta data:

ID: 0cf2c9a6-6d87-43bb-93e3-28d99f39737d
Link: https://api.weather.gov/products/0cf2c9a6-6d87-43bb-93e3-28d99f39737d